Hourly Data Report for January 15, 2022

RANKIN INLET A
NUNAVUT
Current Station Operator: NAVCAN

62°48'38.000" N
92°06'53.000" W
32.30 m
2303405
71083
YRT

Download Data

Hourly Data (January 2022)
Hourly Data Report for January 15, 2022
TIME
LST
Temp Definition
°C
Dew Point Definition
°C
Rel Hum Definition
%
Precip. Amount Definition
mm

Wind Dir Definition
10's deg

Wind Spd Definition
km/h
Visibility Definition
km
Stn Press Definition
kPa
Hmdx Definition


Wind Chill Definition


Weather Definition


00:00 -16.3 -19.0 80   15 21 1.6 100.02   -26 Snow,Blowing Snow
01:00 -15.5 -18.1 81   16 31 2.0 99.77   -27 Snow,Blowing Snow
02:00 -15.5 -18.0 81   16 26 4.8 99.63   -26 Snow,Blowing Snow
03:00 -15.6 -18.2 81   16 22 9.7 99.49   -25 Snow
04:00 -16.8 -19.4 80   30 4 3.2 99.42   -20 Snow
05:00 -15.8 -18.3 81   14 17 4.8 99.28   -24 Snow
06:00 -15.4 -18.0 81   11 27 1.2 99.12   -26 Snow,Blowing Snow
07:00 -15.2 -17.7 81   8 14 4.8 99.14   -23 Snow
08:00 -16.0 -18.7 80   7 15 4.8 99.10   -24 Snow
09:00 -16.2 -19.0 79   5 18 3.2 99.09   -25 Snow
10:00 -16.6 -19.4 79   3 23 1.6 99.01   -27 Snow
11:00 -18.7 -21.7 77   1 29 1.6 99.10   -31 Snow,Blowing Snow
12:00 -19.6 -22.8 76   1 34 1.6 99.08   -33 Snow,Blowing Snow
13:00 -20.6 -23.8 75   34 42 1.6 99.15   -35 Snow,Blowing Snow
14:00 -21.3 -24.6 75   35 47 1.2 99.17   -37 Snow,Blowing Snow
15:00 -22.4 -25.7 75   34 47 0.8 99.25   -38 Snow,Blowing Snow
16:00 -23.2 -26.6 74   34 53 0.8 99.24   -40 Snow,Blowing Snow
17:00 -23.9 -27.3 74   33 52 0.8 99.29   -41 Snow,Blowing Snow
18:00 -25.4 -29.0 73   34 54 0.8 99.32   -43 Snow,Blowing Snow
19:00 -27.1 -30.8 72   33 55 0.6 99.30   -46 Snow,Blowing Snow
20:00 -29.0 -32.8 70   32 58 0.4 99.36   -49 Snow,Blowing Snow
21:00 -30.7 -34.6 69   32 54 0.2 99.35   -51 Snow,Blowing Snow
22:00 -31.6 -35.6 69   32 57 0.2 99.30   -52 Snow,Blowing Snow
23:00 -31.7 -35.7 68   33 57 0.2 99.29   -52 Snow,Blowing Snow

Notes on Data Quality.

Legend

  • E = Estimated
  • M = Missing
  • NA = Not Available*
  • [empty] = Indicates an unobserved value
Date modified: